Date,TemperatureHighF,TemperatureAvgF,TemperatureLowF,DewpointHighF,DewpointAvgF,DewpointLowF,HumidityHigh,HumidityAvg,HumidityLow,PressureMaxIn,PressureMinIn,WindSpeedMaxMPH,WindSpeedAvgMPH,GustSpeedMaxMPH,PrecipitationSumIn
2013-1-1,45,40,33,44,37,28,96,89,69,30.18,29.99,5,0,5,0.38
2013-1-2,44,41,38,43,37,34,97,86,77,30.17,29.94,12,1,12,0.02
2013-1-3,41,36,31,38,32,24,96,86,71,30.32,30.13,11,1,11,0.00
2013-1-4,43,34,29,25,20,14,77,58,31,30.40,30.30,15,3,15,0.00
2013-1-5,52,36,22,33,23,15,92,62,25,30.47,30.25,13,0,13,0.00
2013-1-6,50,42,37,38,33,28,85,72,59,30.25,30.07,15,2,15,0.00
2013-1-7,50,37,28,30,27,24,86,69,40,30.46,30.24,14,1,14,0.00
2013-1-8,57,37,24,44,31,22,92,80,55,30.51,30.39,6,0,6,0.00
2013-1-9,54,47,40,50,44,37,96,90,84,30.50,30.40,4,0,4,0.00
2013-1-10,62,51,42,54,47,40,97,87,70,30.53,30.35,11,0,11,0.00
2013-1-11,57,49,44,56,48,43,100,95,80,30.36,30.14,9,0,9,0.16
2013-1-12,70,60,54,62,57,53,98,90,69,30.17,30.07,7,0,7,0.01
2013-1-13,69,63,59,58,56,54,87,79,67,30.08,29.98,16,1,16,0.00
2013-1-14,61,57,46,59,55,44,97,94,87,30.13,29.99,11,1,11,0.92
2013-1-15,51,46,42,50,45,41,100,96,95,30.15,30.03,8,0,8,1.01
2013-1-16,58,50,42,56,48,41,100,95,83,30.06,29.95,6,0,6,0.36
2013-1-17,52,44,34,50,42,28,100,94,81,30.22,29.79,11,1,11,1.34
2013-1-18,47,34,28,31,27,23,93,77,48,30.55,30.21,14,1,14,0.00
2013-1-19,55,36,23,32,26,16,95,74,25,30.53,30.23,5,0,6,0.01
2013-1-20,55,41,27,35,29,24,93,64,35,30.23,30.10,17,2,17,0.00
2013-1-21,50,35,24,32,23,12,99,64,34,30.15,30.02,19,2,19,0.00
2013-1-22,31,26,20,13,4,-6,55,39,21,30.30,30.06,23,4,23,0.00
2013-1-23,43,32,25,28,18,4,80,56,41,30.39,30.09,15,2,15,0.00
2013-1-24,43,34,22,32,16,6,66,49,31,30.46,30.01,28,4,28,0.00
2013-1-25,44,28,20,39,20,6,92,74,48,30.50,30.13,20,1,20,0.09
2013-1-26,46,36,26,35,25,18,82,66,38,30.38,30.14,16,2,16,0.00
2013-1-27,40,32,23,31,26,20,92,80,67,30.56,30.38,10,1,10,0.03
2013-1-28,65,45,30,51,40,29,95,83,56,30.49,30.26,10,0,10,0.00
2013-1-29,69,52,36,57,47,35,100,82,55,30.27,30.01,12,1,12,0.02
2013-1-30,64,58,44,59,54,39,96,89,82,30.01,29.42,21,2,21,3.12
2013-1-31,44,34,28,39,23,19,85,66,51,30.04,29.48,16,4,22,0.01
2013-2-1,40,27,20,30,13,4,84,56,40,30.40,29.93,25,3,25,0.00
2013-2-2,41,29,17,32,19,6,93,67,39,30.42,30.07,8,0,8,0.00
2013-2-3,42,34,29,32,26,19,95,71,52,30.09,29.92,22,4,22,0.02
2013-2-4,51,35,26,28,23,18,81,63,36,30.18,30.01,12,1,12,0.00
2013-2-5,55,40,28,39,31,24,87,70,45,30.04,29.95,11,1,11,0.00
2013-2-6,58,45,33,38,29,19,87,56,23,30.25,30.02,13,1,13,0.00
2013-2-7,42,40,33,39,31,23,94,74,48,30.28,30.03,7,0,7,0.77
2013-2-8,50,41,33,44,36,27,96,83,56,30.16,29.94,16,1,16,0.02
2013-2-9,56,38,29,30,26,20,87,65,26,30.38,30.11,14,1,14,0.00
2013-2-10,48,40,31,44,30,22,95,70,40,30.44,30.19,13,0,13,0.31
2013-2-11,58,52,45,52,42,17,95,73,27,30.20,29.98,17,2,17,0.05
2013-2-12,52,44,39,38,27,16,93,54,27,30.11,29.93,15,2,15,0.13
2013-2-13,49,40,35,44,36,29,95,87,72,29.96,29.65,15,1,16,0.29
2013-2-14,53,39,30,32,28,24,86,65,35,30.10,29.91,11,1,11,0.00
2013-2-15,55,38,25,37,30,23,95,74,38,30.15,29.98,10,1,10,0.00
2013-2-16,35,30,23,30,21,11,84,69,51,30.04,29.88,17,2,17,0.00
2013-2-17,33,26,19,13,10,6,68,52,37,30.33,30.04,23,3,23,0.00
2013-2-18,51,35,18,26,20,11,84,56,36,30.44,30.21,9,0,9,0.00
2013-2-19,53,41,34,41,27,14,92,59,33,30.23,29.88,20,3,20,0.06
2013-2-20,46,36,29,16,6,-8,50,30,13,30.17,30.04,21,2,21,0.00
2013-2-21,60,39,21,36,19,6,91,49,13,30.26,30.11,7,0,7,0.22
2013-2-22,42,36,34,39,34,30,95,90,79,30.29,30.12,7,0,7,0.41
2013-2-23,53,44,36,48,42,34,100,92,81,30.14,29.85,6,0,6,0.34
2013-2-24,55,45,30,40,30,20,81,58,28,30.05,29.86,14,1,14,0.00
2013-2-25,45,36,28,28,26,23,92,68,47,30.18,30.02,9,0,9,0.00
2013-2-26,37,33,30,35,31,26,95,92,84,30.09,29.63,10,1,10,0.76
2013-2-27,55,43,31,38,32,29,96,69,40,29.83,29.69,13,2,13,0.00
2013-2-28,38,34,31,32,26,24,80,73,67,29.94,29.71,15,3,21,0.00
2013-3-1,37,33,29,30,27,25,92,80,68,29.99,29.91,11,2,12,0.00
2013-3-2,39,32,27,29,26,19,91,77,58,29.99,29.89,13,2,13,0.00
2013-3-3,32,26,22,20,16,13,75,65,52,30.10,29.97,15,2,15,0.00
2013-3-4,53,35,22,25,15,0,74,48,13,30.20,30.08,12,1,12,0.00
2013-3-5,46,37,30,42,34,24,96,86,72,30.12,29.68,18,1,18,0.97
2013-3-6,34,29,25,28,23,19,88,80,74,30.22,29.70,27,4,27,0.00
2013-3-7,42,32,26,32,26,22,88,79,65,30.33,30.18,15,2,15,0.00
2013-3-8,54,36,22,28,24,12,91,66,18,30.38,30.28,9,1,13,0.00
2013-3-9,61,42,23,35,27,20,90,60,28,30.39,30.27,8,0,8,0.00
2013-3-10,63,50,35,37,34,30,83,57,35,30.31,30.17,10,0,10,0.00
2013-3-11,55,51,46,50,46,35,95,83,59,30.20,29.82,14,1,14,0.58
2013-3-12,52,46,39,49,38,26,96,76,39,30.04,29.75,15,2,15,0.40
2013-3-13,43,37,29,32,24,16,71,59,44,30.21,30.03,20,3,23,0.00
2013-3-14,44,33,24,19,16,12,68,50,30,30.34,30.20,14,2,14,0.00
2013-3-15,66,50,32,42,32,15,75,52,26,30.27,29.92,16,1,16,0.00
2013-3-16,75,63,55,48,45,42,63,51,36,29.93,29.70,19,2,19,0.00
2013-3-17,70,58,43,52,46,40,89,66,42,30.01,29.80,12,1,12,0.00
2013-3-18,43,38,34,41,36,33,96,94,89,30.07,29.87,9,1,9,0.36
2013-3-19,54,44,37,44,29,13,97,60,30,30.10,29.91,21,3,21,0.00
2013-3-20,52,40,32,30,15,9,88,37,22,30.13,29.84,15,2,15,0.00
2013-3-21,34,28,22,24,13,6,74,52,41,30.02,29.81,23,4,23,0.00
2013-3-22,46,35,24,24,15,7,63,44,23,30.10,30.01,13,2,13,0.00
2013-3-23,58,44,35,44,35,24,89,71,51,30.07,29.90,5,0,8,0.02
2013-3-24,44,40,36,40,38,34,95,92,83,29.93,29.54,12,1,12,0.77
2013-3-25,37,32,28,34,25,21,95,75,56,29.94,29.56,25,5,25,0.05
2013-3-26,35,31,27,28,24,20,86,75,67,30.26,29.92,19,4,21,0.00
2013-3-27,43,34,28,26,23,20,82,64,42,30.33,30.23,17,2,17,0.00
2013-3-28,50,38,30,26,22,19,77,55,30,30.35,30.26,16,2,16,0.00
2013-3-29,56,38,24,38,27,16,92,70,27,30.39,30.28,12,1,12,0.02
2013-3-30,60,48,40,44,40,37,96,77,49,30.28,30.07,9,0,9,0.24
2013-3-31,64,52,46,52,48,41,96,86,60,30.07,29.82,8,1,13,0.34
2013-4-1,60,51,38,50,40,31,95,69,46,29.99,29.85,21,3,21,0.00
2013-4-2,57,46,36,32,24,15,70,45,20,30.16,29.97,17,3,17,0.00
2013-4-3,59,48,33,28,23,15,68,39,18,30.27,30.15,9,1,10,0.00
2013-4-4,47,38,33,35,28,15,94,72,33,30.26,29.99,9,1,9,0.48
2013-4-5,60,46,36,44,38,32,94,75,37,30.11,29.96,14,2,14,0.00
2013-4-6,66,49,30,40,35,29,100,63,33,30.25,30.10,10,1,10,0.00
2013-4-7,69,54,38,46,41,34,86,63,42,30.22,30.08,12,1,14,0.00
2013-4-8,74,59,41,53,47,39,93,68,44,30.16,30.03,15,1,15,0.00
2013-4-9,81,66,47,57,53,44,94,65,39,30.17,30.05,11,1,11,0.00
2013-4-10,86,68,50,61,54,47,93,64,30,30.08,29.91,9,1,9,0.00
2013-4-11,76,65,55,62,56,51,90,72,44,29.93,29.64,15,1,15,0.43
2013-4-12,70,62,52,62,50,37,95,69,35,29.85,29.57,18,2,18,1.61
2013-4-13,69,57,47,39,36,25,72,47,22,30.05,29.83,18,3,19,0.00
2013-4-14,69,55,38,49,41,35,89,63,33,30.11,29.97,11,1,11,0.00
2013-4-15,63,55,51,56,52,48,95,89,77,30.22,29.97,7,0,10,0.08
2013-4-16,77,63,52,62,56,50,96,78,55,30.28,30.15,10,0,10,0.00
2013-4-17,71,63,55,62,58,52,96,86,71,30.24,30.10,7,0,7,0.52
2013-4-18,73,64,56,61,58,54,95,80,57,30.11,29.92,11,0,11,0.00
2013-4-19,66,60,44,61,55,34,92,84,69,29.92,29.66,20,2,20,0.66
2013-4-20,60,47,36,35,30,23,79,54,30,30.31,29.90,18,2,18,0.00
2013-4-21,60,46,31,38,33,28,92,62,36,30.47,30.31,16,1,16,0.00
2013-4-22,62,50,42,42,37,32,82,63,41,30.43,30.22,9,1,9,0.00
2013-4-23,71,53,34,47,39,30,89,62,38,30.29,30.09,11,0,11,0.00
2013-4-24,69,56,42,58,49,40,96,79,56,30.14,29.98,15,1,15,0.01
2013-4-25,68,53,40,48,32,8,85,54,10,30.32,30.08,13,2,13,0.00
2013-4-26,68,52,32,45,35,27,89,56,32,30.43,30.29,11,0,11,0.00
2013-4-27,57,52,49,51,48,44,95,84,64,30.38,30.25,4,0,4,0.61
2013-4-28,51,49,47,50,48,45,96,95,90,30.25,30.03,7,0,7,1.60
2013-4-29,72,59,50,60,53,48,100,83,44,30.09,29.93,10,0,10,0.07
2013-4-30,73,61,51,59,55,49,96,81,52,30.15,29.97,4,0,11,0.00
2013-5-1,62,57,54,54,52,50,89,83,71,30.26,30.15,10,1,10,0.00
2013-5-2,57,53,51,54,52,50,95,93,89,30.29,30.22,11,1,11,0.20
2013-5-3,55,52,48,51,50,47,96,90,80,30.24,30.09,11,1,11,0.28
2013-5-4,53,47,44,49,44,40,98,90,80,30.10,29.99,15,2,15,0.58
2013-5-5,50,46,43,49,45,42,96,95,95,30.05,29.85,15,2,15,4.90
2013-5-6,65,55,45,53,49,43,96,81,50,29.90,29.81,15,0,15,0.31
2013-5-7,62,49,42,51,46,40,96,88,55,29.97,29.88,9,0,9,0.37
2013-5-8,66,56,48,56,52,47,96,86,66,30.04,29.94,14,0,14,0.02
2013-5-9,77,58,47,59,51,45,96,80,43,30.13,30.02,9,0,9,0.00
2013-5-10,77,71,64,59,57,55,79,63,48,30.04,29.92,14,1,14,0.00
2013-5-11,76,64,55,61,57,52,94,78,55,29.96,29.78,13,0,13,0.00
2013-5-12,62,55,47,52,41,31,84,61,38,30.07,29.85,17,2,17,0.00
2013-5-13,61,50,39,37,33,29,82,53,32,30.21,30.07,16,1,16,0.00
2013-5-14,74,54,33,51,41,31,94,65,35,30.28,30.09,11,0,11,0.00
2013-5-15,86,69,50,59,53,47,91,60,30,30.11,29.94,14,1,15,0.00
2013-5-16,79,67,57,57,54,51,86,65,43,30.02,29.93,12,0,12,0.00
2013-5-17,79,65,51,62,56,49,96,76,51,30.10,30.00,9,0,9,0.00
2013-5-18,64,62,59,62,60,56,96,93,82,30.09,30.03,4,0,4,0.99
2013-5-19,74,65,61,66,62,59,97,90,74,30.10,29.98,7,0,7,0.16
2013-5-20,82,68,59,70,63,58,96,85,61,30.09,29.98,8,0,8,0.01
2013-5-21,83,69,59,70,63,57,96,84,54,30.04,29.90,10,0,10,0.04
2013-5-22,79,65,58,68,62,56,96,89,64,29.98,29.84,11,0,11,0.73
2013-5-23,79,67,58,64,58,52,96,76,47,29.94,29.82,16,1,16,0.05
2013-5-24,67,60,49,52,46,37,86,62,38,30.21,29.86,16,1,16,0.00
2013-5-25,75,57,39,49,41,36,89,58,29,30.32,30.20,9,0,9,0.00
2013-5-26,74,60,52,53,48,44,88,67,40,30.27,30.15,12,0,12,0.00
2013-5-27,77,63,47,62,54,45,95,75,54,30.27,30.13,10,0,10,0.00
2013-5-28,81,68,54,64,58,52,95,74,43,30.19,30.10,12,0,12,0.00
2013-5-29,83,69,57,67,60,54,94,75,49,30.20,30.11,11,0,11,0.00
2013-5-30,80,68,56,67,60,54,95,78,57,30.25,30.14,10,0,10,0.00
2013-5-31,81,69,60,63,60,58,93,75,49,30.19,30.08,6,0,10,0.00
2013-6-1,81,71,62,65,62,59,90,73,52,30.11,29.99,14,0,14,0.00
2013-6-2,72,66,62,67,64,61,95,92,79,30.03,29.88,8,0,8,0.37
2013-6-3,81,69,62,66,61,58,96,78,49,29.95,29.84,12,0,12,0.00
2013-6-4,77,68,57,65,61,55,94,81,63,30.07,29.93,8,0,8,0.00
2013-6-5,76,68,62,68,63,59,94,85,73,30.07,29.94,9,0,9,0.19
2013-6-6,77,69,63,68,65,62,95,87,71,29.96,29.74,5,0,5,0.04
2013-6-7,80,68,62,69,64,60,95,87,62,29.81,29.65,10,0,11,0.66
2013-6-8,82,69,60,68,63,58,95,82,50,30.07,29.81,8,0,8,0.12
2013-6-9,77,67,61,69,64,59,94,89,69,30.12,30.01,8,0,8,0.81
2013-6-10,76,68,61,67,63,58,94,85,65,30.03,29.86,11,0,11,0.82
2013-6-11,82,70,61,66,62,58,94,76,52,30.00,29.91,16,1,16,0.08
2013-6-12,89,74,61,75,66,59,93,78,51,30.01,29.90,10,0,10,0.00
2013-6-13,87,72,64,70,65,61,93,79,49,29.90,29.66,15,1,15,0.13
2013-6-14,77,67,56,62,56,53,92,70,45,30.04,29.78,10,1,10,0.01
2013-6-15,82,66,49,64,56,47,94,73,45,30.15,30.04,10,0,10,0.00
2013-6-16,84,70,56,67,62,54,94,77,50,30.12,29.99,9,0,9,0.01
2013-6-17,79,71,64,70,66,62,94,86,68,30.02,29.91,6,0,6,0.12
2013-6-18,77,69,62,70,65,59,94,88,73,29.92,29.76,19,0,19,0.18
2013-6-19,78,67,59,67,61,57,93,83,65,30.11,29.91,7,0,7,0.13
2013-6-20,78,68,60,68,63,58,94,85,67,30.21,30.10,9,0,9,0.01
2013-6-21,81,70,61,66,62,59,94,79,54,30.25,30.15,7,0,7,0.00
2013-6-22,83,70,58,67,61,55,92,75,54,30.23,30.09,6,0,6,0.00
2013-6-23,79,68,58,69,63,56,93,84,67,30.20,30.11,6,0,6,0.79
2013-6-24,85,71,61,72,65,59,94,83,57,30.20,30.05,11,0,11,0.77
2013-6-25,84,72,65,72,66,63,94,84,60,30.12,29.99,9,0,9,0.05
2013-6-26,83,72,63,73,66,61,93,83,63,30.03,29.89,9,0,9,0.00
2013-6-27,85,72,64,73,66,61,92,82,63,29.94,29.73,15,0,15,0.02
2013-6-28,87,74,64,71,66,61,91,78,54,29.79,29.58,15,0,15,0.01
2013-6-29,83,70,60,65,61,57,93,75,47,29.70,29.61,9,0,9,0.00
2013-6-30,82,68,58,69,61,55,92,82,46,29.81,29.69,6,0,8,0.00
2013-7-1,80,70,63,70,65,61,93,85,70,29.94,29.79,9,0,9,0.77
2013-7-2,80,70,64,72,65,61,93,86,71,30.11,29.92,8,0,8,0.04
2013-7-3,73,67,61,69,64,59,92,90,86,30.20,30.08,13,0,13,1.97
2013-7-4,74,66,62,70,63,59,93,91,86,30.23,30.14,4,0,4,1.80
2013-7-5,82,70,66,71,65,62,90,84,67,30.23,30.15,11,0,11,0.11
2013-7-6,80,70,66,71,65,62,88,85,73,30.19,30.09,8,0,8,1.06
2013-7-7,80,71,68,71,66,62,87,83,71,30.16,30.05,7,0,7,0.42
2013-7-8,88,73,66,72,66,61,86,78,49,30.17,30.06,6,0,6,0.09
2013-7-9,86,73,65,74,66,60,84,79,66,30.15,30.02,8,0,8,0.05
2013-7-10,81,69,64,73,63,59,84,82,75,30.12,29.94,9,0,9,1.54
2013-7-11,78,70,65,71,64,60,84,82,76,29.96,29.85,4,0,5,0.03
2013-7-12,80,69,62,71,62,56,83,79,70,30.01,29.87,10,0,10,0.53
2013-7-13,74,67,62,67,60,55,82,80,76,30.11,30.00,9,0,9,0.00
2013-7-14,74,68,67,66,60,56,80,73,69,30.28,30.08,10,0,10,1.81
2013-7-15,82,72,67,72,63,56,82,73,64,30.32,30.24,6,0,7,0.09
2013-7-16,89,74,62,73,63,52,82,69,49,30.33,30.21,6,0,6,0.00
2013-7-17,86,71,63,75,60,52,81,69,60,30.28,30.15,8,0,8,0.42
2013-7-18,86,74,66,75,63,53,81,70,63,30.21,30.04,8,0,8,0.00
2013-7-19,90,74,65,75,62,52,81,67,48,30.11,29.95,9,0,9,0.24
2013-7-20,85,71,66,74,61,54,80,69,63,30.03,29.92,11,0,11,0.01
2013-7-21,83,71,65,74,60,51,81,68,61,30.00,29.91,7,0,7,0.04
2013-7-22,86,73,65,73,61,51,81,67,59,30.00,29.79,14,0,14,0.19
2013-7-23,85,73,65,72,63,51,81,71,56,29.88,29.76,13,0,13,0.02
2013-7-24,85,74,66,72,64,53,81,71,54,29.83,29.75,9,0,9,0.00
2013-7-25,84,70,64,72,61,52,81,71,64,30.03,29.83,7,0,7,0.00
2013-7-26,80,69,58,70,58,47,81,70,59,30.08,29.99,5,0,5,0.05
2013-7-27,80,69,65,70,56,50,80,64,56,30.03,29.86,13,0,13,2.12
2013-7-28,84,71,63,70,58,49,81,63,53,30.01,29.90,8,0,8,0.32
2013-7-29,86,68,58,64,53,43,82,59,26,30.19,30.01,6,0,7,0.00
2013-7-30,78,67,57,68,58,45,82,73,59,30.22,30.13,7,0,7,0.00
2013-7-31,73,67,63,66,53,47,79,60,51,30.18,29.96,2,0,5,0.55
2013-8-1,85,72,65,72,58,47,80,63,49,29.99,29.87,10,0,10,0.01
2013-8-2,85,71,61,72,57,44,80,63,51,30.03,29.93,1,0,6,0.00
2013-8-3,83,72,65,70,57,45,80,60,48,30.03,29.94,9,0,9,0.00
2013-8-4,82,71,62,67,58,44,80,63,48,30.04,29.96,13,0,13,0.00
2013-8-5,79,68,59,70,56,42,80,65,49,30.07,29.95,7,0,7,0.22
2013-8-6,81,71,64,72,57,44,79,63,45,30.03,29.95,2,0,7,0.01
2013-8-7,72,69,68,56,48,43,61,47,39,30.05,29.99,5,0,5,0.41
2013-8-8,81,72,65,72,55,41,78,58,38,30.06,29.98,5,0,5,0.00
2013-8-9,85,73,66,74,57,40,79,57,36,30.07,29.99,8,0,8,0.06
2013-8-10,84,72,67,73,53,40,78,53,35,30.12,30.04,10,0,10,0.07
2013-8-11,87,73,66,73,54,39,78,53,33,30.15,30.03,8,0,8,0.00
2013-8-12,86,73,67,74,54,36,77,53,31,30.09,29.95,9,0,9,0.01
2013-8-13,83,72,67,72,53,33,78,54,27,29.98,29.80,11,0,11,0.05
2013-8-14,80,68,62,66,53,34,79,60,33,30.05,29.87,9,0,9,0.00
2013-8-15,70,63,58,60,55,51,80,77,68,30.14,30.04,9,0,9,0.00
2013-8-16,74,63,55,62,52,34,80,67,45,30.16,30.07,7,0,8,0.00
2013-8-17,65,62,58,58,50,36,80,67,39,30.18,30.11,7,0,7,0.14
2013-8-18,77,66,60,69,44,33,78,47,30,30.22,30.12,7,0,7,0.28
2013-8-19,74,67,63,66,42,30,78,43,27,30.19,30.07,3,0,3,0.90
2013-8-20,80,69,61,71,46,28,77,47,25,30.20,30.09,2,0,2,0.00
2013-8-21,76,69,63,68,44,24,77,45,19,30.24,30.10,0,0,0,0.02
2013-8-22,86,72,62,71,47,23,78,46,18,30.18,30.01,0,0,0,0.00
2013-8-23,82,69,62,71,43,20,77,44,16,30.09,29.97,9,0,9,0.02
2013-8-24,78,68,59,64,46,17,78,50,16,30.29,30.09,10,0,10,0.00
2013-8-25,78,64,52,63,47,20,78,57,25,30.39,30.28,6,0,6,0.00
2013-8-26,80,65,53,68,46,20,78,53,23,30.34,30.12,6,0,6,0.00
2013-8-27,84,69,58,70,44,16,77,46,17,30.18,30.01,8,0,8,0.00
2013-8-28,85,73,63,74,48,4,77,50,8,30.07,29.93,11,0,11,0.00
2013-8-29,86,77,70,74,68,42,78,74,40,29.96,29.86,15,0,15,0.00
2013-8-30,82,73,69,73,51,26,76,49,20,30.02,29.90,8,0,8,0.00
2013-8-31,85,72,66,73,40,2,76,40,7,29.96,29.85,3,0,7,0.00
2013-9-1,86,72,66,73,36,-10,77,38,5,29.91,29.77,10,0,10,0.04
2013-9-2,85,73,65,72,37,-7,77,40,5,29.91,29.79,11,0,11,0.00
2013-9-3,83,70,62,70,36,-17,77,38,3,30.00,29.82,11,0,11,0.13
2013-9-4,86,68,59,69,35,-3,77,36,7,30.13,30.00,4,0,6,0.00
2013-9-5,83,68,58,70,35,-13,77,40,4,30.15,30.06,5,0,5,0.00
2013-9-6,80,64,50,67,42,6,77,48,14,30.21,30.08,8,0,8,0.00
2013-9-7,82,67,56,67,37,-7,77,40,6,30.15,29.99,9,0,9,0.00
2013-9-8,80,68,59,69,34,-38,76,40,1,30.04,29.94,6,0,6,0.00
2013-9-9,83,70,60,71,35,-39,76,40,1,30.15,30.04,10,0,10,0.00
2013-9-10,86,70,59,71,36,-38,77,38,2,30.25,30.13,6,0,6,0.00
2013-9-11,79,69,60,70,26,-39,76,33,1,30.25,30.08,4,0,4,0.01
2013-9-12,82,71,64,70,33,-37,77,37,1,30.12,29.85,13,0,13,0.12
2013-9-13,77,66,56,62,43,1,79,50,8,29.90,29.81,11,0,11,0.04
2013-9-14,73,58,47,59,40,11,79,53,21,30.15,29.90,8,0,8,0.00
2013-9-15,75,61,51,64,38,6,78,48,13,30.23,30.12,6,0,6,0.00
2013-9-16,81,65,53,64,38,-2,79,43,8,30.18,30.08,9,0,9,0.00
2013-9-17,67,62,58,58,54,52,80,76,66,30.28,30.16,5,0,10,0.00
2013-9-18,66,60,55,58,48,22,80,68,22,30.29,30.17,7,0,7,0.00
2013-9-19,77,64,59,67,36,5,77,40,11,30.20,30.08,6,0,6,0.00
2013-9-20,82,68,60,69,34,-13,78,39,4,30.10,29.91,9,0,13,0.00
2013-9-21,66,62,57,47,8,-10,49,13,5,29.93,29.72,9,0,9,1.18
2013-9-22,73,61,53,60,31,-1,78,41,9,29.93,29.75,9,0,9,0.01
2013-9-23,71,60,52,61,34,2,78,45,11,30.07,29.93,8,0,8,0.00
2013-9-24,74,63,52,64,39,2,78,48,11,30.08,29.92,5,0,8,0.00
2013-9-25,61,59,58,20,1,-15,22,10,4,29.94,29.87,3,0,3,0.83
2013-9-26,67,59,52,60,26,-6,78,39,7,30.07,29.90,1,0,6,0.00
2013-9-27,73,59,47,62,37,5,78,50,12,30.19,30.07,3,0,6,0.01
2013-9-28,64,60,55,57,51,33,78,73,44,30.24,30.15,6,0,6,0.00
2013-9-29,69,60,53,59,51,38,79,73,56,30.18,30.03,6,0,6,0.01
2013-9-30,70,60,51,60,41,9,79,54,15,30.11,30.01,3,0,7,0.00
2013-10-1,76,62,51,62,36,6,78,43,12,30.19,30.05,6,0,7,0.00
2013-10-2,77,62,53,64,33,4,78,39,10,30.21,30.08,4,0,4,0.00
2013-10-3,78,64,55,65,35,-2,78,42,8,30.17,30.06,4,0,7,0.00
2013-10-4,79,64,56,67,33,-2,78,38,8,30.19,30.08,7,0,7,0.00
2013-10-5,81,65,55,67,34,-4,78,38,6,30.18,30.03,7,0,7,0.00
2013-10-6,78,65,55,66,37,-13,78,44,4,30.08,29.88,9,0,9,0.00
2013-10-7,66,60,48,58,31,-15,79,46,4,30.03,29.80,12,1,12,1.44
2013-10-8,64,53,45,52,35,11,81,55,24,30.24,30.03,8,0,8,0.00
2013-10-9,67,53,43,53,38,16,80,57,34,30.26,30.14,6,0,6,0.00
2013-10-10,73,54,39,57,36,12,80,51,19,30.18,30.04,8,0,8,0.00
2013-10-11,74,58,45,58,35,10,79,45,15,30.07,29.95,11,0,11,0.00
2013-10-12,70,59,49,61,36,6,79,48,15,30.11,30.00,8,0,8,0.00
2013-10-13,68,61,56,61,25,-5,78,31,7,30.22,30.11,3,0,3,0.08
2013-10-14,64,60,55,55,20,-5,73,28,7,30.24,30.15,6,0,6,0.03
2013-10-15,62,57,54,55,31,8,78,42,15,30.20,30.07,6,0,6,0.01
2013-10-16,69,58,47,60,32,4,80,44,14,30.11,29.96,7,0,7,0.00
2013-10-17,68,61,56,61,24,-20,78,35,3,29.99,29.82,6,0,8,0.13
2013-10-18,68,56,45,57,41,15,80,59,29,30.03,29.91,8,0,8,0.00
2013-10-19,62,56,52,54,32,6,79,47,14,29.98,29.83,12,0,12,0.00
2013-10-20,63,49,37,48,37,16,81,64,39,30.14,29.94,8,0,8,0.00
2013-10-21,65,50,37,53,32,13,80,51,25,30.19,30.03,5,0,7,0.00
2013-10-22,66,55,48,52,33,10,81,47,18,30.06,29.81,9,0,9,0.00
2013-10-23,53,46,37,45,34,16,80,64,31,30.05,29.74,17,2,17,0.01
2013-10-24,50,42,35,37,33,27,81,70,56,30.20,30.05,14,1,14,0.00
2013-10-25,48,38,28,35,27,21,84,68,41,30.41,30.20,12,1,12,0.00
2013-10-26,56,39,23,38,25,12,82,60,29,30.40,30.10,10,0,10,0.00
2013-10-27,64,54,46,50,44,34,81,69,56,30.13,30.05,15,1,15,0.00
2013-10-28,60,51,44,53,30,14,80,46,22,30.29,30.12,2,0,2,0.04
2013-10-29,66,54,47,54,34,14,81,50,22,30.38,30.25,6,0,6,0.00
2013-10-30,72,58,49,57,39,15,80,52,23,30.31,30.16,8,0,8,0.00
2013-10-31,65,59,51,58,43,15,79,59,23,30.19,29.82,8,0,12,0.01
2013-11-1,75,64,54,59,51,38,81,64,28,29.84,29.60,18,1,18,0.02
2013-11-2,59,52,46,47,41,36,79,66,49,30.02,29.72,13,1,18,0.03
2013-11-3,56,46,36,38,36,32,84,69,47,30.39,30.01,11,1,11,0.00
2013-11-4,53,43,32,33,31,24,84,64,44,30.53,30.38,9,0,9,0.00
2013-11-5,54,44,35,41,32,21,82,65,29,30.56,30.45,9,0,9,0.00
2013-11-6,64,55,47,52,45,31,82,70,51,30.45,30.14,8,0,8,0.00
2013-11-7,57,49,40,51,33,20,81,57,26,30.16,30.01,18,2,18,0.02
2013-11-8,53,40,29,30,25,17,89,58,27,30.36,30.16,15,1,15,0.00
2013-11-9,55,40,26,34,28,21,84,65,33,30.42,30.27,8,0,8,0.00
2013-11-10,64,51,36,39,32,23,83,50,31,30.29,30.18,17,2,17,0.00
2013-11-11,61,43,27,31,28,23,84,58,32,30.35,30.20,8,0,8,0.00
2013-11-12,54,39,24,37,26,13,84,62,39,30.48,30.12,18,2,18,0.00
2013-11-13,43,29,21,21,17,11,84,61,39,30.60,30.47,14,2,14,0.00
2013-11-14,60,34,18,25,19,11,92,62,15,30.55,30.38,10,0,10,0.00
2013-11-15,56,41,25,49,28,20,83,64,37,30.40,30.25,9,0,9,0.16
2013-11-16,58,50,44,52,30,21,80,47,33,30.29,30.18,10,0,10,0.01
2013-11-17,60,56,53,54,32,17,80,43,20,30.23,29.88,10,0,10,0.35
2013-11-18,63,56,44,54,37,15,81,51,18,30.02,29.84,21,3,21,0.01
2013-11-19,53,44,38,32,26,22,66,50,33,30.28,30.00,10,2,13,0.00
2013-11-20,47,40,33,31,28,25,76,62,42,30.48,30.26,11,1,11,0.00
2013-11-21,51,45,38,44,32,21,82,62,34,30.51,30.40,3,0,7,0.04
2013-11-22,65,57,48,57,41,20,80,59,27,30.42,30.12,10,1,10,0.02
2013-11-23,57,46,31,50,38,19,81,71,47,30.23,30.08,24,3,24,0.00
2013-11-24,38,28,20,20,11,-4,75,50,17,30.54,30.22,14,2,16,0.00
2013-11-25,39,28,18,26,14,9,84,60,31,30.58,30.37,11,0,11,0.01
2013-11-26,43,38,30,26,22,20,83,53,43,30.38,29.69,10,0,10,2.21
2013-11-27,43,30,22,27,21,13,84,69,43,30.23,29.63,30,4,30,0.04
2013-11-28,48,29,18,26,19,14,85,69,37,30.53,30.22,13,1,13,0.02
2013-11-29,54,33,21,30,22,12,84,65,35,30.64,30.52,6,0,6,0.00
2013-11-30,44,33,26,27,24,22,84,69,49,30.64,30.42,7,0,10,0.00
2013-12-1,58,36,22,39,26,14,84,69,39,30.42,30.09,9,0,9,0.00
2013-12-2,56,41,27,41,31,16,83,68,56,30.09,29.84,5,0,5,0.00
2013-12-3,43,42,41,38,34,33,83,74,69,29.91,29.88,2,0,2,0.00
2013-12-4,42,42,42,33,33,33,69,69,69,29.89,29.89,0,0,0,0.00
2013-12-5,64,46,42,35,31,22,69,60,21,29.99,29.89,10,0,10,0.27
2013-12-6,70,65,54,62,52,26,80,64,24,30.00,29.88,17,3,20,0.23
2013-12-7,54,46,40,43,37,29,82,73,44,30.38,29.95,16,2,16,0.00
2013-12-8,41,34,32,36,22,19,82,61,57,30.39,30.25,13,1,13,0.17
2013-12-9,56,47,32,50,32,19,83,57,35,30.26,30.03,14,1,14,0.39
2013-12-10,48,40,29,42,27,19,82,62,41,30.33,29.89,12,2,21,0.18
2013-12-11,51,34,19,26,18,10,85,56,23,30.50,30.33,16,1,16,0.00
2013-12-12,38,31,25,21,14,3,72,52,24,30.43,30.33,16,2,16,0.00
2013-12-13,51,32,18,28,20,14,92,63,30,30.46,30.30,8,0,8,0.00
2013-12-14,40,37,35,31,26,22,83,63,52,30.32,29.82,8,0,8,0.46
2013-12-15,44,36,30,38,28,22,84,75,48,30.14,29.79,23,3,23,0.01
2013-12-16,54,38,27,32,27,22,85,67,40,30.23,30.14,14,1,14,0.00
2013-12-17,58,43,27,35,30,20,84,62,41,30.19,29.94,27,3,27,0.00
2013-12-18,46,35,26,23,14,2,70,45,18,30.36,30.08,17,2,17,0.00
2013-12-19,63,40,23,34,26,16,85,62,26,30.40,30.26,6,0,10,0.00
2013-12-20,64,47,34,48,33,23,83,60,33,30.27,30.13,10,0,10,0.00
2013-12-21,65,60,53,58,52,40,83,75,48,30.16,29.95,16,1,18,0.13
2013-12-22,65,59,55,58,40,31,81,52,39,30.03,29.91,19,1,22,2.14
2013-12-23,56,47,33,47,35,28,83,66,40,30.20,29.97,15,2,15,0.21
2013-12-24,33,29,19,29,22,16,86,75,58,30.47,30.19,10,3,16,0.00
2013-12-25,37,25,17,18,15,12,86,68,42,30.57,30.42,9,0,9,0.00
2013-12-26,48,30,18,28,20,14,86,69,34,30.44,30.33,15,1,15,0.00
2013-12-27,51,31,20,29,21,14,92,69,29,30.53,30.42,9,0,9,0.00
2013-12-28,48,35,21,38,25,15,89,68,49,30.50,30.17,6,0,6,0.28
2013-12-29,52,43,38,44,33,24,83,67,51,30.17,29.82,18,2,18,0.43
2013-12-30,46,41,35,38,35,30,84,78,70,30.16,29.99,15,2,15,0.00
2013-12-31,40,34,25,30,21,16,85,61,39,30.42,30.14,15,2,19,0.00
2014-1-1,46,32,23,29,24,19,92,74,45,30.43,30.18,3,0,4,0.00
2014-1-2,47,33,19,41,26,12,84,77,55,30.19,29.70,30,2,30,0.16